[[{"header":{"parameterUnit":"m.s-1","parameterCategory":2,"la1":30.2991,"la2":30.254,"lo1":-89.0895,"lo2":-89.0444,"dy":0.0017,"dx":0.0017,"nx":28,"ny":28,"refTime":"2023-10-06T09:00:00:Z","depth":"0","parameterNumber":2,"parameterNumberName":"U-component_of_CURRENTS"},"data":[0,0,0,0,0,0,0,0,0,0,0,0,0,0,0,0,0,0,0,0,0,0,0,0,0,0,0,0,0,0,0,0,0,0,0,0,0,0,0,0,0,0,0,0,0,0,0,0,0,0,0,0,0,0,0,0,0,0,-0.2746,-0.2747,0,-0.2819,-0.282,-0.2821,-0.2762,-0.2759,-0.2757,-0.2754,-0.2802,-0.2805,-0.2809,0,0,0,0,0,0,0,0,0,0,0,0,0,-0.2584,-0.2587,-0.2746,-0.2747,-0.2748,-0.2819,-0.282,-0.2821,-0.2762,-0.2759,-0.2756,-0.2753,-0.2801,-0.2805,-0.2809,0,0,0,0,0,0,0,0,0,0,0,0,0,-0.2655,-0.2588,-0.2746,-0.2728,-0.2727,-0.2819,-0.282,-0.2821,-0.2763,-0.2759,-0.2755,-0.2752,-0.2799,-0.2804,-0.281,-0.2916,0,0,-0.2826,-0.2828,0,0,0,0,0,0,0,0,-0.2651,-0.2661,-0.2729,-0.2729,-0.2728,-0.2778,-0.2781,-0.2852,-0.2764,-0.2748,-0.2754,-0.275,-0.2795,-0.28,-0.2822,-0.2918,-0.292,-0.2826,-0.283,-0.2832,-0.2833,0,0,0,0,0,0,0,-0.2646,-0.2658,-0.2774,-0.2731,-0.273,-0.2726,-0.2731,-0.2794,-0.279,-0.2749,-0.2745,-0.2756,-0.2793,-0.2817,-0.2822,-0.2921,-0.2826,-0.2831,-0.2834,-0.2836,-0.2986,-0.2987,0,0,0,0,0,0,-0.2642,-0.2654,-0.2772,-0.2777,-0.268,-0.2732,-0.2738,-0.2765,-0.279,-0.2791,-0.2759,-0.2753,-0.2809,-0.2816,-0.2824,-0.2837,-0.2832,-0.2837,-0.284,-0.2985,-0.2986,-0.2987,0,0,0,0,0,0,-0.2639,-0.2653,-0.2769,-0.2715,-0.273,-0.2738,-0.277,-0.2769,-0.2771,-0.2798,-0.2797,-0.2759,-0.2807,-0.2816,-0.2868,-0.2842,-0.2839,-0.2844,-0.2984,-0.2985,-0.2986,-0.2938,0,0,0,0,0,0,-0.2634,-0.2652,-0.2668,-0.2716,-0.2733,-0.2802,-0.2773,-0.2773,-0.2785,-0.2777,-0.2799,-0.28,-0.2805,-0.286,-0.2873,-0.285,-0.2848,-0.2983,-0.2985,-0.2986,-0.2938,-0.2937,-0.2936,0,0,0,0,0,-0.2628,-0.266,-0.2669,-0.2683,-0.2757,-0.2803,-0.2811,-0.2803,-0.2788,-0.2792,-0.2813,-0.2798,-0.2876,-0.2867,-0.2881,-0.2858,-0.2982,-0.2984,-0.2986,-0.2939,-0.2937,-0.2936,0,0,0,0,0,0,-0.2593,-0.2659,-0.2669,-0.2718,-0.275,-0.2792,-0.28,-0.2809,-0.2834,-0.2822,-0.2839,-0.2844,-0.2873,-0.2894,-0.2882,-0.2907,-0.2917,-0.2921,-0.2875,-0.2875,-0.2873,-0.2821,-0.2853,0,0,0,0,0,-0.2601,-0.2637,-0.2694,-0.2727,-0.2746,-0.2778,-0.2796,-0.2798,-0.2829,-0.2834,-0.2854,-0.2875,-0.2903,-0.2908,-0.2945,-0.2984,-0.2962,-0.2972,-0.297,-0.2969,-0.2938,-0.2898,-0.2889,-0.2993,-0.2993,-0.2993,0,0,-0.2592,-0.2635,-0.2652,-0.2721,-0.2745,-0.2768,-0.2778,-0.2804,-0.2805,-0.2843,-0.2854,-0.2889,-0.2919,-0.2941,-0.2953,-0.2946,-0.2934,-0.2971,-0.2969,-0.2939,-0.2899,-0.2888,-0.2878,-0.2994,-0.2994,-0.2993,0,0,-0.2588,-0.2635,-0.2659,-0.269,-0.2734,-0.2759,-0.2765,-0.2813,-0.2808,-0.2854,-0.2862,-0.2876,-0.2943,-0.293,-0.2939,-0.2964,-0.2941,-0.2982,-0.2918,-0.288,-0.287,-0.286,-0.2831,-0.2819,-0.2965,-0.2965,-0.2965,0,-0.2565,-0.2612,-0.2669,-0.2695,-0.2709,-0.275,-0.2762,-0.2782,-0.2833,-0.2833,-0.2841,-0.2895,-0.292,-0.2912,-0.2907,-0.2951,-0.2937,-0.2916,-0.2873,-0.2863,-0.2854,-0.2826,-0.2813,-0.2963,-0.2963,-0.2963,-0.2963,0,-0.2581,-0.2607,-0.262,-0.2664,-0.2694,-0.2709,-0.2749,-0.2766,-0.2779,-0.2794,-0.2804,-0.2841,-0.2855,-0.2867,-0.2894,-0.2848,-0.2862,-0.2885,-0.2863,-0.284,-0.2813,-0.2801,-0.2959,-0.296,-0.2961,-0.2961,0,0,-0.2535,-0.2613,-0.2611,-0.2618,-0.2673,-0.2697,-0.2708,-0.2726,-0.2722,-0.2746,-0.2731,-0.2755,-0.2766,-0.2776,-0.2804,-0.276,-0.2696,-0.2788,-0.2787,-0.2733,-0.2614,-0.2553,-0.2534,-0.2711,-0.2709,-0.2707,-0.2624,0,-0.2509,-0.2545,-0.2594,-0.2599,-0.2612,-0.2654,-0.2665,-0.2687,-0.2706,-0.271,-0.2705,-0.2719,-0.2734,-0.2745,-0.2701,-0.2721,-0.2659,-0.2715,-0.2665,-0.2663,-0.259,-0.2515,-0.241,-0.2321,-0.2612,-0.261,-0.2609,0,-0.2485,-0.2517,-0.2527,-0.2564,-0.2574,-0.2586,-0.2604,-0.262,-0.2636,-0.2653,-0.2641,-0.2664,-0.2624,-0.2644,-0.2578,-0.2619,-0.2594,-0.2585,-0.2583,-0.2522,-0.2576,-0.2392,-0.2287,-0.2281,-0.259,-0.2591,-0.2592,0,-0.2408,-0.2454,-0.2457,-0.2469,-0.253,-0.2531,-0.2556,-0.2589,-0.2593,-0.2609,-0.2611,-0.2589,-0.2575,-0.2535,-0.2521,-0.2549,-0.2442,-0.2488,-0.2393,-0.2391,-0.2284,-0.2275,-0.2136,-0.2392,-0.2392,-0.2393,-0.2393,0,-0.2346,-0.2339,-0.242,-0.2418,-0.2413,-0.2481,-0.2472,-0.2502,-0.2533,-0.2526,-0.2565,-0.254,-0.2541,-0.25,-0.2487,-0.2389,-0.2408,-0.234,-0.2343,-0.227,-0.2261,-0.224,-0.2282,-0.2389,-0.239,-0.2391,-0.2391,0,-0.2237,-0.2292,-0.2292,-0.2357,-0.2371,-0.2363,-0.2413,-0.2417,-0.2463,-0.2453,-0.2454,-0.2478,-0.2426,-0.2416,-0.236,-0.2328,-0.222,-0.2225,-0.2142,-0.2134,-0.2035,-0.208,-0.1937,-0.1882,-0.2093,-0.2091,-0.2089,0,-0.2179,-0.2172,-0.2226,-0.2228,-0.2248,-0.2263,-0.2279,-0.2354,-0.2368,-0.2401,-0.2385,-0.2353,-0.2307,-0.2209,-0.215,-0.2076,-0.2105,-0.1946,-0.196,-0.1964,-0.2017,-0.2061,-0.203,-0.1817,-0.1812,-0.1809,-0.1806,0,-0.2057,-0.2079,-0.2091,-0.2101,-0.2115,-0.2121,-0.2154,-0.2156,-0.224,-0.2239,-0.2221,-0.2187,-0.2115,-0.1992,-0.1914,-0.1862,-0.1898,-0.1874,-0.1885,-0.1765,-0.1793,-0.1765,-0.1965,-0.1777,-0.178,-0.1782,-0.1784,-0.1785,-0.1953,-0.1935,-0.1959,-0.1947,-0.1966,-0.1949,-0.1908,-0.1967,-0.1949,-0.1926,-0.2002,-0.1925,-0.1894,-0.1754,-0.1705,-0.1589,-0.1662,-0.1549,-0.1598,-0.1639,-0.1578,-0.1709,-0.1527,-0.1529,-0.153,-0.1531,-0.1532,0,-0.1813,-0.1812,-0.1806,-0.1788,-0.1742,-0.1798,-0.1797,-0.174,-0.1677,-0.172,-0.1683,-0.164,-0.1528,-0.152,-0.1424,-0.1351,-0.1331,-0.1327,-0.1364,-0.1341,-0.1439,-0.1419,-0.1195,-0.1195,-0.1195,-0.1195,-0.1195,-0.1195,-0.1742,-0.1686,-0.1685,-0.1556,-0.1543,-0.1432,-0.1394,-0.1345,-0.1342,-0.127,-0.127,-0.1295,-0.1327,-0.1435,-0.1341,-0.1268,-0.1261,-0.1202,-0.1254,-0.1348,-0.1373,-0.1398,-0.1385,-0.1158,-0.1158,-0.1086,-0.1086,-0.1086]},{"header":{"parameterUnit":"m.s-1","parameterCategory":2,"la1":30.2991,"la2":30.254,"lo1":-89.0895,"lo2":-89.0444,"dy":0.0017,"dx":0.0017,"nx":28,"ny":28,"refTime":"2023-10-06T09:00:00:Z","depth":"0","parameterNumber":3,"parameterNumberName":"V-component_of_CURRENTS"},"data":[0,0,0,0,0,0,0,0,0,0,0,0,0,0,0,0,0,0,0,0,0,0,0,0,0,0,0,0,0,0,0,0,0,0,0,0,0,0,0,0,0,0,0,0,0,0,0,0,0,0,0,0,0,0,0,0,0,0,-0.0261,-0.0259,0,-0.013,-0.0129,-0.0127,-0.0045,-0.0044,-0.0044,-0.0044,0.0182,0.0188,0.0194,0,0,0,0,0,0,0,0,0,0,0,0,0,-0.034,-0.034,-0.0261,-0.0259,-0.0258,-0.0131,-0.0129,-0.0127,-0.0045,-0.0044,-0.0044,-0.0044,0.0181,0.0187,0.0194,0,0,0,0,0,0,0,0,0,0,0,0,0,-0.0266,-0.034,-0.0261,-0.0203,-0.0197,-0.0131,-0.0129,-0.0126,-0.0045,-0.0044,-0.0044,-0.0044,0.0178,0.0187,0.0195,0.024,0,0,0.0222,0.0225,0,0,0,0,0,0,0,0,-0.027,-0.0263,-0.0213,-0.0207,-0.02,-0.0105,-0.0074,0.0,-0.0045,-0.01,-0.0044,-0.0043,0.0093,0.0109,0.0134,0.0251,0.0261,0.0222,0.0228,0.0231,0.0234,0,0,0,0,0,0,0,-0.0276,-0.0267,-0.0207,-0.0212,-0.0204,-0.015,-0.014,-0.0059,-0.0004,-0.0095,-0.009,-0.0079,0.0098,0.0126,0.0141,0.0264,0.0222,0.023,0.0235,0.0239,0.044,0.044,0,0,0,0,0,0,-0.0302,-0.0273,-0.0211,-0.0203,-0.0237,-0.015,-0.0138,-0.0134,-0.0007,0.0012,-0.0079,-0.0076,0.0111,0.013,0.0149,0.0196,0.0231,0.0239,0.0244,0.0439,0.044,0.044,0,0,0,0,0,0,-0.0304,-0.0298,-0.0216,-0.0236,-0.0222,-0.015,-0.0146,-0.0132,-0.0107,0.0004,0.0025,-0.007,0.0112,0.0137,0.0215,0.0206,0.0243,0.0251,0.0439,0.0439,0.044,0.0299,0,0,0,0,0,0,-0.0307,-0.03,-0.0308,-0.0239,-0.0222,-0.0191,-0.0146,-0.013,-0.0102,-0.0096,0.002,0.0041,0.0114,0.0202,0.0224,0.0218,0.0258,0.0439,0.0439,0.044,0.0303,0.0294,0.0287,0,0,0,0,0,-0.031,-0.0328,-0.0309,-0.0301,-0.0236,-0.0192,-0.0179,-0.0124,-0.0103,-0.0098,-0.0018,0.0037,0.0219,0.0209,0.0235,0.0231,0.0439,0.0439,0.044,0.0307,0.0296,0.0287,0,0,0,0,0,0,-0.0367,-0.0319,-0.0297,-0.0299,-0.0256,-0.0179,-0.0173,-0.0134,-0.0068,-0.0061,0.0044,0.0071,0.0137,0.0207,0.0193,0.0292,0.0337,0.0342,0.0228,0.0218,0.021,0.0194,0.0265,0,0,0,0,0,-0.0386,-0.0386,-0.0327,-0.033,-0.0314,-0.0245,-0.0222,-0.0185,-0.0118,-0.009,-0.0009,0.008,0.016,0.0204,0.0286,0.0341,0.0397,0.0357,0.0348,0.034,0.0346,0.0404,0.04,0.0441,0.0441,0.0441,0,0,-0.0407,-0.0383,-0.0382,-0.0342,-0.0304,-0.0287,-0.023,-0.0205,-0.0184,-0.0073,-0.0022,0.0056,0.0169,0.0228,0.0264,0.0284,0.0356,0.0341,0.0333,0.0344,0.0404,0.04,0.0396,0.0441,0.0441,0.0441,0,0,-0.0455,-0.0433,-0.0448,-0.0419,-0.0375,-0.0327,-0.0327,-0.0257,-0.0221,-0.0164,-0.0081,-0.0012,0.0109,0.0181,0.0236,0.0234,0.0309,0.0259,0.0205,0.0259,0.0255,0.0253,0.0299,0.0302,0.0253,0.0253,0.0253,0,-0.0483,-0.0491,-0.0445,-0.0449,-0.0428,-0.0354,-0.0354,-0.0309,-0.0221,-0.0188,-0.0166,0.0004,0.0087,0.017,0.0166,0.0213,0.0255,0.0225,0.0244,0.0243,0.0243,0.0292,0.0297,0.0246,0.0247,0.0248,0.0248,0,-0.0537,-0.0539,-0.0546,-0.0524,-0.0495,-0.0486,-0.0418,-0.0386,-0.0335,-0.0276,-0.0193,-0.0087,0.0017,0.0044,0.0108,0.0154,0.0186,0.0221,0.0258,0.023,0.0284,0.0291,0.0237,0.0239,0.0241,0.0243,0,0,-0.06,-0.0588,-0.0587,-0.0588,-0.0533,-0.0514,-0.0483,-0.0422,-0.0396,-0.0319,-0.0273,-0.0157,-0.0099,-0.0033,0.0048,0.0092,0.0116,0.0146,0.0152,0.0171,0.0229,0.0283,0.0298,0.0147,0.0148,0.0149,0.0258,0,-0.0649,-0.0682,-0.0651,-0.0661,-0.0663,-0.0591,-0.0563,-0.0499,-0.0431,-0.0369,-0.0266,-0.0188,-0.0128,-0.0083,-0.0032,0.0098,0.0134,0.0084,0.0274,0.028,0.0314,0.0308,0.0355,0.0459,0.0266,0.0268,0.0269,0,-0.0702,-0.0714,-0.0743,-0.072,-0.0714,-0.0704,-0.0639,-0.0605,-0.05,-0.0448,-0.0363,-0.0269,-0.0167,-0.0128,0.0047,0.0011,0.0105,0.0187,0.0194,0.0304,0.035,0.0464,0.0482,0.0629,0.0281,0.028,0.028,0,-0.0761,-0.077,-0.0796,-0.0791,-0.0757,-0.0749,-0.0718,-0.0629,-0.0593,-0.0494,-0.0453,-0.0322,-0.0241,-0.0117,0.0063,0.0054,0.0248,0.0263,0.0394,0.0398,0.051,0.0523,0.068,0.0363,0.0362,0.0362,0.0362,0,-0.0818,-0.0835,-0.0831,-0.0846,-0.0863,-0.0811,-0.08,-0.0749,-0.0667,-0.0617,-0.05,-0.0424,-0.0236,-0.0093,0.0046,0.0256,0.0239,0.0392,0.0435,0.0462,0.0469,0.0662,0.0712,0.0366,0.0365,0.0364,0.0364,0,-0.0874,-0.0874,-0.0905,-0.0897,-0.0895,-0.0905,-0.0865,-0.0848,-0.0765,-0.0697,-0.0667,-0.0489,-0.0292,-0.0103,0.0126,0.0249,0.0532,0.0501,0.0517,0.056,0.0811,0.085,0.1051,0.1149,0.0661,0.0663,0.0665,0,-0.0907,-0.0932,-0.0956,-0.0977,-0.0979,-0.0982,-0.0976,-0.0907,-0.0875,-0.0722,-0.0687,-0.0489,-0.0313,0.0037,0.0289,0.0545,0.0636,0.0714,0.071,0.0842,0.0917,0.0931,0.0998,0.0796,0.0799,0.0801,0.0803,0,-0.0961,-0.0972,-0.1,-0.105,-0.1067,-0.1078,-0.1059,-0.1047,-0.094,-0.085,-0.0681,-0.0527,-0.0168,0.0176,0.0497,0.064,0.0831,0.0766,0.0913,0.1046,0.1066,0.1175,0.0696,0.0822,0.082,0.0819,0.0818,0.0817,-0.0992,-0.1032,-0.1071,-0.1112,-0.1137,-0.1149,-0.1138,-0.1085,-0.1007,-0.0829,-0.0678,-0.0381,0.0081,0.0567,0.0736,0.1087,0.1023,0.1176,0.1213,0.1216,0.1311,0.0868,0.1036,0.1035,0.1034,0.1034,0.1033,0,-0.1025,-0.107,-0.1124,-0.1168,-0.1196,-0.1194,-0.1167,-0.111,-0.0993,-0.0791,-0.0578,0.0005,0.0462,0.0864,0.135,0.1529,0.1562,0.1594,0.1632,0.1683,0.1314,0.1322,0.155,0.155,0.1549,0.1549,0.1549,0.1549,-0.1044,-0.1109,-0.1141,-0.1196,-0.1221,-0.1215,-0.1188,-0.1072,-0.0906,-0.0537,-0.0181,0.0112,0.0692,0.1441,0.1887,0.1917,0.2072,0.2033,0.2121,0.1869,0.1832,0.1798,0.182,0.2148,0.2149,0.2489,0.2492,0.2495]}],[{"header":{"parameterUnit":"m.s-1","parameterCategory":2,"la1":30.2991,"la2":30.254,"lo1":-89.0895,"lo2":-89.0444,"dy":0.0017,"dx":0.0017,"nx":28,"ny":28,"refTime":"2023-10-06T09:00:00:Z","depth":"2","parameterNumber":2,"parameterNumberName":"U-component_of_CURRENTS"},"data":[0,0,0,0,0,0,0,0,0,0,0,0,0,0,0,0,0,0,0,0,0,0,0,0,0,0,0,0,0,0,0,0,0,0,0,0,0,0,0,0,0,0,0,0,0,0,0,0,0,0,0,0,0,0,0,0,0,0,-0.2388,-0.2389,0,-0.2432,-0.2432,-0.2432,-0.2394,-0.2392,-0.2391,-0.239,-0.2397,-0.2399,-0.24,0,0,0,0,0,0,0,0,0,0,0,0,0,-0.2264,-0.2266,-0.2388,-0.2389,-0.2389,-0.2432,-0.2432,-0.2433,-0.2394,-0.2392,-0.2391,-0.2389,-0.2397,-0.2399,-0.24,0,0,0,0,0,0,0,0,0,0,0,0,0,-0.231,-0.2266,-0.2388,-0.2378,-0.2378,-0.2432,-0.2432,-0.2433,-0.2394,-0.2392,-0.239,-0.2389,-0.2396,-0.2398,-0.24,-0.2452,0,0,-0.2407,-0.2408,0,0,0,0,0,0,0,0,-0.2308,-0.2315,-0.2378,-0.2379,-0.2379,-0.2408,-0.2391,-0.2438,-0.2395,-0.2384,-0.239,-0.2388,-0.2401,-0.2403,-0.2411,-0.2452,-0.2452,-0.2407,-0.2408,-0.2409,-0.241,0,0,0,0,0,0,0,-0.2305,-0.2312,-0.2402,-0.238,-0.238,-0.2369,-0.2374,-0.24,-0.24,-0.2385,-0.2383,-0.2394,-0.24,-0.2409,-0.2411,-0.2453,-0.2407,-0.2409,-0.241,-0.2411,-0.2501,-0.2503,0,0,0,0,0,0,-0.2309,-0.231,-0.24,-0.2403,-0.2342,-0.2374,-0.2378,-0.2398,-0.24,-0.24,-0.2396,-0.2392,-0.2407,-0.2409,-0.2411,-0.2429,-0.2409,-0.2411,-0.2412,-0.25,-0.2502,-0.2503,0,0,0,0,0,0,-0.2306,-0.2317,-0.2399,-0.2359,-0.2369,-0.2378,-0.2401,-0.24,-0.2404,-0.2409,-0.2407,-0.24,-0.2405,-0.2408,-0.2426,-0.243,-0.2412,-0.2414,-0.2499,-0.2501,-0.2502,-0.2493,0,0,0,0,0,0,-0.2303,-0.2316,-0.2327,-0.236,-0.2372,-0.2426,-0.2403,-0.2402,-0.2416,-0.2411,-0.2413,-0.2412,-0.2404,-0.2423,-0.2428,-0.2433,-0.2416,-0.2498,-0.25,-0.2502,-0.2492,-0.2494,-0.2496,0,0,0,0,0,-0.2298,-0.2319,-0.2327,-0.2338,-0.2389,-0.2427,-0.2432,-0.2429,-0.2418,-0.2424,-0.2421,-0.2411,-0.244,-0.2426,-0.2432,-0.2437,-0.2496,-0.2499,-0.2502,-0.2491,-0.2494,-0.2496,0,0,0,0,0,0,-0.2266,-0.2319,-0.2328,-0.2362,-0.2393,-0.2422,-0.2427,-0.2436,-0.2442,-0.2433,-0.243,-0.243,-0.2445,-0.2454,-0.2439,-0.2472,-0.2467,-0.247,-0.2456,-0.2459,-0.2461,-0.2433,-0.2417,0,0,0,0,0,-0.227,-0.2293,-0.2345,-0.2366,-0.2385,-0.241,-0.2424,-0.2431,-0.2446,-0.2446,-0.2452,-0.2458,-0.2466,-0.247,-0.2483,-0.251,-0.2488,-0.2518,-0.252,-0.2522,-0.2505,-0.2476,-0.2473,-0.2511,-0.2511,-0.2511,0,0,-0.226,-0.2293,-0.2304,-0.236,-0.238,-0.2407,-0.2412,-0.2438,-0.2449,-0.2449,-0.2459,-0.247,-0.2477,-0.2492,-0.2501,-0.2496,-0.2504,-0.2525,-0.2526,-0.2508,-0.2479,-0.2474,-0.247,-0.2513,-0.2513,-0.2513,0,0,-0.2252,-0.2287,-0.2305,-0.2337,-0.238,-0.2402,-0.2414,-0.2455,-0.2457,-0.2487,-0.2479,-0.2485,-0.252,-0.2507,-0.2509,-0.2538,-0.2518,-0.2558,-0.2542,-0.2515,-0.251,-0.2506,-0.2481,-0.2474,-0.2557,-0.2557,-0.2557,0,-0.2234,-0.2269,-0.2313,-0.2341,-0.2359,-0.2401,-0.242,-0.2442,-0.248,-0.2481,-0.2487,-0.251,-0.2517,-0.2511,-0.2517,-0.2537,-0.2523,-0.2526,-0.2513,-0.2508,-0.2504,-0.2479,-0.2472,-0.2557,-0.2557,-0.2557,-0.2557,0,-0.2244,-0.227,-0.2283,-0.2329,-0.2359,-0.2381,-0.2428,-0.2451,-0.2468,-0.2484,-0.2494,-0.2505,-0.2509,-0.2523,-0.2527,-0.251,-0.251,-0.2517,-0.2496,-0.2499,-0.2474,-0.2466,-0.2556,-0.2556,-0.2556,-0.2556,0,0,-0.2195,-0.2272,-0.2273,-0.2289,-0.2352,-0.2376,-0.2405,-0.2435,-0.2443,-0.2474,-0.2471,-0.2485,-0.2489,-0.2491,-0.25,-0.2479,-0.2443,-0.2486,-0.2485,-0.2442,-0.2383,-0.2311,-0.2296,-0.2447,-0.2446,-0.2445,-0.238,0,-0.2177,-0.2218,-0.2264,-0.2288,-0.231,-0.236,-0.2384,-0.2418,-0.2443,-0.2459,-0.2461,-0.247,-0.2478,-0.2483,-0.2461,-0.2456,-0.2422,-0.2459,-0.2403,-0.2401,-0.232,-0.2284,-0.2128,-0.205,-0.2372,-0.2371,-0.237,0,-0.2157,-0.2192,-0.2215,-0.2268,-0.2282,-0.2305,-0.2342,-0.237,-0.2405,-0.2426,-0.2429,-0.2445,-0.2428,-0.2437,-0.2389,-0.2415,-0.2389,-0.2377,-0.2374,-0.2298,-0.2313,-0.21,-0.2024,-0.2357,-0.2358,-0.2359,-0.236,0,-0.2085,-0.2146,-0.2158,-0.2178,-0.2254,-0.2265,-0.23,-0.2347,-0.2363,-0.2398,-0.2408,-0.2404,-0.2395,-0.2368,-0.2349,-0.2369,-0.229,-0.2315,-0.2216,-0.2212,-0.2059,-0.2043,-0.2251,-0.2251,-0.2251,-0.2251,-0.2251,0,-0.2036,-0.2043,-0.2126,-0.2134,-0.2147,-0.222,-0.223,-0.2272,-0.2318,-0.2325,-0.2375,-0.2366,-0.2375,-0.2344,-0.2329,-0.2239,-0.2267,-0.2187,-0.2177,-0.2055,-0.204,-0.2296,-0.2302,-0.2249,-0.2249,-0.225,-0.225,0,-0.194,-0.1997,-0.2014,-0.2091,-0.2109,-0.2116,-0.2183,-0.2201,-0.2257,-0.2265,-0.2275,-0.2316,-0.2277,-0.2271,-0.2226,-0.2191,-0.2136,-0.2095,-0.1953,-0.1926,-0.2085,-0.2092,-0.1973,-0.197,-0.1967,-0.1965,-0.1963,0,-0.1891,-0.1892,-0.196,-0.1972,-0.2002,-0.2034,-0.2062,-0.2146,-0.217,-0.2223,-0.2217,-0.2203,-0.2165,-0.208,-0.2017,-0.1945,-0.2033,-0.177,-0.1768,-0.2047,-0.205,-0.2062,-0.2072,-0.1572,-0.1567,-0.1563,-0.1559,0,-0.1793,-0.1817,-0.1839,-0.1865,-0.1893,-0.1915,-0.1963,-0.1971,-0.2064,-0.2072,-0.2066,-0.2039,-0.1974,-0.1822,-0.1744,-0.1692,-0.1775,-0.1683,-0.1981,-0.1674,-0.1664,-0.167,-0.1693,-0.1523,-0.1526,-0.1529,-0.1531,-0.1532,-0.1708,-0.1699,-0.1731,-0.1737,-0.177,-0.1767,-0.1739,-0.1801,-0.1793,-0.1776,-0.1851,-0.1757,-0.1754,-0.1531,-0.1451,-0.1389,-0.1515,-0.1462,-0.1476,-0.1494,-0.1466,-0.1453,-0.1267,-0.1269,-0.127,-0.1272,-0.1273,0,-0.1594,-0.1598,-0.1605,-0.1606,-0.158,-0.1637,-0.1648,-0.1597,-0.1539,-0.1564,-0.1525,-0.1351,-0.1243,-0.1246,-0.1086,-0.1063,-0.1067,-0.1027,-0.1038,-0.1074,-0.1106,-0.1061,-0.0752,-0.0751,-0.075,-0.0748,0,0,-0.1537,-0.1496,-0.1496,-0.1402,-0.1402,-0.1316,-0.1285,-0.1234,-0.1216,-0.1124,-0.108,-0.1155,-0.1196,-0.0973,-0.0925,-0.0812,-0.0935,-0.0767,-0.1182,-0.123,-0.126,-0.1349,-0.1319,0,0,0,0,0]},{"header":{"parameterUnit":"m.s-1","parameterCategory":2,"la1":30.2991,"la2":30.254,"lo1":-89.0895,"lo2":-89.0444,"dy":0.0017,"dx":0.0017,"nx":28,"ny":28,"refTime":"2023-10-06T09:00:00:Z","depth":"2","parameterNumber":3,"parameterNumberName":"V-component_of_CURRENTS"},"data":[0,0,0,0,0,0,0,0,0,0,0,0,0,0,0,0,0,0,0,0,0,0,0,0,0,0,0,0,0,0,0,0,0,0,0,0,0,0,0,0,0,0,0,0,0,0,0,0,0,0,0,0,0,0,0,0,0,0,-0.0236,-0.0235,0,-0.0144,-0.0143,-0.0142,-0.0073,-0.0072,-0.0072,-0.0071,0.0074,0.0077,0.0081,0,0,0,0,0,0,0,0,0,0,0,0,0,-0.0285,-0.0285,-0.0236,-0.0235,-0.0234,-0.0144,-0.0143,-0.0141,-0.0073,-0.0072,-0.0072,-0.0071,0.0073,0.0077,0.0081,0,0,0,0,0,0,0,0,0,0,0,0,0,-0.0235,-0.0285,-0.0237,-0.019,-0.0185,-0.0144,-0.0143,-0.0141,-0.0073,-0.0072,-0.0072,-0.0071,0.0072,0.0077,0.0082,0.0098,0,0,0.0097,0.0099,0,0,0,0,0,0,0,0,-0.0238,-0.0233,-0.0198,-0.0193,-0.0188,-0.012,-0.0107,-0.0059,-0.0073,-0.0115,-0.0071,-0.0071,0.0013,0.0023,0.0039,0.0105,0.0111,0.0098,0.0101,0.0103,0.0104,0,0,0,0,0,0,0,-0.0241,-0.0236,-0.0199,-0.0197,-0.0191,-0.015,-0.0143,-0.0097,-0.0054,-0.0111,-0.0106,-0.0098,0.0016,0.0034,0.0043,0.0113,0.0097,0.0102,0.0105,0.0107,0.0225,0.0225,0,0,0,0,0,0,-0.026,-0.024,-0.0202,-0.0196,-0.0213,-0.0151,-0.0142,-0.0142,-0.0056,-0.0043,-0.0098,-0.0095,0.0025,0.0037,0.0049,0.0085,0.0103,0.0108,0.0111,0.0225,0.0225,0.0225,0,0,0,0,0,0,-0.0261,-0.0257,-0.0205,-0.0216,-0.0207,-0.0151,-0.0151,-0.014,-0.0122,-0.0047,-0.0033,-0.0092,0.0026,0.0042,0.0086,0.0091,0.011,0.0115,0.0225,0.0225,0.0225,0.015,0,0,0,0,0,0,-0.0263,-0.0259,-0.0267,-0.0218,-0.0207,-0.0189,-0.0151,-0.0139,-0.0119,-0.0113,-0.0037,-0.0022,0.0028,0.0078,0.0091,0.0098,0.0119,0.0225,0.0225,0.0225,0.0153,0.0148,0.0144,0,0,0,0,0,-0.0265,-0.0283,-0.0268,-0.0264,-0.022,-0.019,-0.0181,-0.0137,-0.012,-0.0117,-0.0065,-0.0025,0.0089,0.0082,0.0097,0.0106,0.0225,0.0225,0.0225,0.0155,0.0149,0.0144,0,0,0,0,0,0,-0.0309,-0.0276,-0.0259,-0.0266,-0.0234,-0.0179,-0.0176,-0.0146,-0.0103,-0.0098,-0.0027,-0.0009,0.0031,0.0077,0.0068,0.0141,0.0165,0.0168,0.0106,0.0101,0.0097,0.0086,0.0123,0,0,0,0,0,-0.0325,-0.033,-0.0286,-0.0293,-0.0281,-0.0231,-0.0214,-0.0185,-0.014,-0.0121,-0.0066,-0.0007,0.0044,0.0077,0.0125,0.0164,0.0206,0.0181,0.0176,0.0172,0.0175,0.0235,0.0236,0.0226,0.0226,0.0226,0,0,-0.0343,-0.0327,-0.0329,-0.0302,-0.0275,-0.0263,-0.0219,-0.0202,-0.0185,-0.0112,-0.0077,-0.0026,0.0048,0.0091,0.0114,0.0131,0.0195,0.0172,0.0168,0.0173,0.0235,0.0236,0.0237,0.0226,0.0226,0.0226,0,0,-0.0384,-0.037,-0.0386,-0.0364,-0.0332,-0.0296,-0.0296,-0.0245,-0.0216,-0.0179,-0.0121,-0.0068,0.0006,0.0066,0.0105,0.0106,0.0162,0.012,0.0099,0.0156,0.0158,0.0159,0.0201,0.0207,0.0126,0.0125,0.0125,0,-0.0408,-0.0419,-0.0385,-0.0391,-0.0374,-0.0317,-0.0319,-0.0283,-0.0222,-0.0194,-0.0179,-0.006,-0.0002,0.0068,0.007,0.0097,0.013,0.011,0.0149,0.0152,0.0155,0.0198,0.0205,0.0122,0.0122,0.0123,0.0123,0,-0.0455,-0.0459,-0.0468,-0.0452,-0.043,-0.0426,-0.037,-0.0345,-0.0303,-0.0255,-0.019,-0.0111,-0.0035,-0.0009,0.0033,0.0088,0.0103,0.0127,0.0158,0.0151,0.0197,0.0206,0.0117,0.0118,0.0119,0.012,0,0,-0.0511,-0.0504,-0.0504,-0.0506,-0.0461,-0.0449,-0.0421,-0.0369,-0.0345,-0.0281,-0.0237,-0.0146,-0.0098,-0.0051,0.0012,0.0067,0.0113,0.01,0.0105,0.0133,0.0227,0.0255,0.0268,0.014,0.0141,0.0142,0.0245,0,-0.0553,-0.0584,-0.0558,-0.0568,-0.0572,-0.0512,-0.0486,-0.0431,-0.0372,-0.0318,-0.0223,-0.0163,-0.0114,-0.0079,-0.0017,0.0085,0.0136,0.0082,0.0238,0.0243,0.0262,0.028,0.0243,0.0333,0.0254,0.0256,0.0257,0,-0.06,-0.0612,-0.0638,-0.0619,-0.0614,-0.0608,-0.0551,-0.0521,-0.0425,-0.038,-0.0299,-0.0224,-0.0121,-0.009,0.0077,0.0038,0.0122,0.0195,0.0202,0.0263,0.0289,0.0332,0.0353,0.0273,0.0272,0.0271,0.0269,0,-0.065,-0.0661,-0.0684,-0.068,-0.0652,-0.0646,-0.062,-0.054,-0.0508,-0.0417,-0.0381,-0.0254,-0.0185,-0.0063,0.0094,0.0085,0.0269,0.0281,0.0384,0.0386,0.0406,0.0408,0.0387,0.0387,0.0387,0.0387,0.0386,0,-0.07,-0.0717,-0.0715,-0.073,-0.0747,-0.0701,-0.0692,-0.0648,-0.0573,-0.0528,-0.0418,-0.035,-0.0176,-0.0045,0.0084,0.0268,0.0267,0.0388,0.0422,0.0377,0.0376,0.0367,0.0363,0.039,0.039,0.0389,0.0388,0,-0.075,-0.075,-0.0781,-0.0775,-0.0776,-0.0786,-0.0754,-0.074,-0.0664,-0.0603,-0.0575,-0.0414,-0.0237,-0.0063,0.015,0.026,0.0427,0.0487,0.0416,0.044,0.0504,0.0495,0.0614,0.0616,0.0618,0.0619,0.0621,0,-0.0778,-0.0802,-0.0827,-0.085,-0.0855,-0.0861,-0.0858,-0.0795,-0.0767,-0.0629,-0.0597,-0.0422,-0.027,0.0045,0.026,0.0489,0.0481,0.0574,0.0561,0.051,0.0531,0.052,0.0509,0.0551,0.0552,0.0552,0.0552,0,-0.0828,-0.0839,-0.0867,-0.0918,-0.0938,-0.0952,-0.0938,-0.0927,-0.0831,-0.0751,-0.0602,-0.0469,-0.0166,0.0096,0.0374,0.0496,0.0535,0.0591,0.0577,0.0496,0.0459,0.0476,0.0467,0.0556,0.0556,0.0556,0.0555,0.0555,-0.0858,-0.0896,-0.0935,-0.0978,-0.1006,-0.102,-0.1012,-0.0967,-0.09,-0.0744,-0.0613,-0.0371,-0.0144,0.028,0.0458,0.0614,0.0618,0.0651,0.0647,0.0642,0.0614,0.0581,0.0696,0.0696,0.0696,0.0697,0.0697,0,-0.0891,-0.0934,-0.0987,-0.1033,-0.1063,-0.1064,-0.1043,-0.0992,-0.0892,-0.0727,-0.0546,-0.0244,0.0044,0.0273,0.0537,0.0692,0.066,0.0693,0.0623,0.0619,0.0615,0.0582,0.0658,0.0658,0.0658,0.0659,0,0,-0.0911,-0.0971,-0.1001,-0.1059,-0.1089,-0.1091,-0.1069,-0.0967,-0.083,-0.064,-0.0447,-0.0205,0.0082,0.0262,0.0434,0.0559,0.0543,0.0556,0.057,0.0461,0.0456,0.0574,0.0517,0,0,0,0,0]}],[{"header":{"parameterUnit":"m.s-1","parameterCategory":2,"la1":30.2991,"la2":30.254,"lo1":-89.0895,"lo2":-89.0444,"dy":0.0017,"dx":0.0017,"nx":28,"ny":28,"refTime":"2023-10-06T09:00:00:Z","depth":"4","parameterNumber":2,"parameterNumberName":"U-component_of_CURRENTS"},"data":[0,0,0,0,0,0,0,0,0,0,0,0,0,0,0,0,0,0,0,0,0,0,0,0,0,0,0,0,0,0,0,0,0,0,0,0,0,0,0,0,0,0,0,0,0,0,0,0,0,0,0,0,0,0,0,0,0,0,-0.1631,-0.1632,0,-0.1705,-0.1706,-0.1707,-0.174,-0.174,-0.174,-0.174,-0.1752,-0.1752,-0.1752,0,0,0,0,0,0,0,0,0,0,0,0,0,-0.1512,-0.1514,-0.1631,-0.1632,-0.1633,-0.1705,-0.1706,-0.1707,-0.174,-0.174,-0.174,-0.174,-0.1752,-0.1752,-0.1752,0,0,0,0,0,0,0,0,0,0,0,0,0,-0.157,-0.1514,-0.163,-0.1661,-0.1664,-0.1705,-0.1706,-0.1707,-0.174,-0.174,-0.174,-0.1741,-0.1752,-0.1752,-0.1752,-0.1746,0,0,-0.1752,-0.1752,0,0,0,0,0,0,0,0,-0.1566,-0.1573,-0.1655,-0.1659,-0.1663,-0.1717,-0.1669,-0.1718,-0.174,-0.1707,-0.174,-0.1741,-0.1736,-0.1737,-0.1747,-0.1747,-0.1747,-0.1752,-0.1752,-0.1753,-0.1753,0,0,0,0,0,0,0,-0.1562,-0.157,-0.1657,-0.1656,-0.1661,-0.1669,-0.1678,-0.1678,-0.1715,-0.171,-0.1714,-0.1727,-0.1737,-0.1747,-0.1747,-0.1748,-0.1752,-0.1752,-0.1753,-0.1753,-0.1809,-0.181,0,0,0,0,0,0,-0.156,-0.1567,-0.1654,-0.1659,-0.1618,-0.1672,-0.1681,-0.1696,-0.1717,-0.1722,-0.1727,-0.1729,-0.1746,-0.1747,-0.1748,-0.1801,-0.1753,-0.1753,-0.1753,-0.1808,-0.1809,-0.1811,0,0,0,0,0,0,-0.1557,-0.1567,-0.1651,-0.1617,-0.1629,-0.1674,-0.1691,-0.1698,-0.1735,-0.1731,-0.1734,-0.1761,-0.1747,-0.1747,-0.1774,-0.18,-0.1753,-0.1753,-0.1806,-0.1808,-0.181,-0.187,0,0,0,0,0,0,-0.1554,-0.1566,-0.1585,-0.1617,-0.1631,-0.1693,-0.1691,-0.1699,-0.1743,-0.1747,-0.176,-0.176,-0.1747,-0.1774,-0.1774,-0.1799,-0.1753,-0.1804,-0.1807,-0.181,-0.1867,-0.1874,-0.1881,0,0,0,0,0,-0.1549,-0.1568,-0.1586,-0.1597,-0.1653,-0.1694,-0.1702,-0.1732,-0.1745,-0.1766,-0.1778,-0.1761,-0.1791,-0.1775,-0.1775,-0.1801,-0.1803,-0.1806,-0.1809,-0.1863,-0.1873,-0.1881,0,0,0,0,0,0,-0.1527,-0.1575,-0.1594,-0.1628,-0.1669,-0.1702,-0.1725,-0.175,-0.1778,-0.1786,-0.1779,-0.178,-0.1811,-0.1801,-0.1784,-0.1826,-0.1794,-0.1798,-0.1836,-0.1844,-0.1851,-0.1832,-0.1753,0,0,0,0,0,-0.1532,-0.1558,-0.1607,-0.1635,-0.1659,-0.1699,-0.1724,-0.175,-0.1776,-0.1791,-0.1806,-0.1815,-0.1819,-0.183,-0.1831,-0.1856,-0.1827,-0.1873,-0.1881,-0.1887,-0.1872,-0.1857,-0.1861,-0.1821,-0.1821,-0.1821,0,0,-0.1532,-0.1561,-0.1577,-0.1633,-0.1664,-0.17,-0.1715,-0.1762,-0.1793,-0.1785,-0.1834,-0.1841,-0.1832,-0.1858,-0.1871,-0.1857,-0.1887,-0.1891,-0.1896,-0.1877,-0.1861,-0.1865,-0.1868,-0.1824,-0.1823,-0.1823,0,0,-0.1531,-0.1572,-0.1593,-0.1631,-0.169,-0.1717,-0.1739,-0.1796,-0.1825,-0.1873,-0.187,-0.1893,-0.1918,-0.1912,-0.1909,-0.1956,-0.1923,-0.197,-0.1993,-0.198,-0.1982,-0.1984,-0.1963,-0.1962,-0.1976,-0.1976,-0.1976,0,-0.1531,-0.1563,-0.1606,-0.1639,-0.1671,-0.1728,-0.1761,-0.1799,-0.186,-0.1878,-0.1897,-0.1932,-0.1935,-0.1942,-0.1966,-0.197,-0.1956,-0.1961,-0.1987,-0.1988,-0.1989,-0.1967,-0.1965,-0.198,-0.1979,-0.1979,-0.1979,0,-0.1541,-0.1581,-0.1598,-0.1655,-0.1697,-0.1736,-0.1796,-0.1845,-0.1892,-0.1922,-0.1965,-0.1978,-0.1991,-0.2009,-0.2004,-0.2017,-0.2003,-0.1995,-0.1961,-0.1996,-0.1971,-0.1969,-0.1984,-0.1983,-0.1982,-0.1981,0,0,-0.1501,-0.1587,-0.1597,-0.1628,-0.1711,-0.1743,-0.1802,-0.1858,-0.1891,-0.1955,-0.1985,-0.2016,-0.2031,-0.2028,-0.2033,-0.2035,-0.2042,-0.2027,-0.2025,-0.1998,-0.2011,-0.1883,-0.1867,-0.2044,-0.2044,-0.2044,-0.1995,0,-0.1496,-0.155,-0.1598,-0.1657,-0.1691,-0.1761,-0.1807,-0.1868,-0.1921,-0.1967,-0.1992,-0.2023,-0.2035,-0.2052,-0.2056,-0.2044,-0.2036,-0.2055,-0.1987,-0.1984,-0.1859,-0.1859,-0.2043,-0.1993,-0.1992,-0.1992,-0.1991,0,-0.1482,-0.1525,-0.1577,-0.1658,-0.168,-0.1727,-0.1805,-0.1854,-0.1923,-0.1964,-0.2,-0.2025,-0.2043,-0.2051,-0.2036,-0.2052,-0.2031,-0.2021,-0.2019,-0.1867,-0.1849,-0.1948,-0.1985,-0.1986,-0.1986,-0.1987,-0.1987,0,-0.1416,-0.1504,-0.1542,-0.1574,-0.1676,-0.1715,-0.1772,-0.1851,-0.1888,-0.196,-0.1987,-0.2017,-0.203,-0.2022,-0.2013,-0.2029,-0.1982,-0.1995,-0.1854,-0.1845,-0.195,-0.1949,-0.1963,-0.1963,-0.1963,-0.1964,-0.1964,0,-0.1372,-0.1409,-0.1522,-0.1545,-0.1596,-0.1684,-0.1738,-0.18,-0.1875,-0.1901,-0.1976,-0.1983,-0.2025,-0.2011,-0.2003,-0.1906,-0.1968,-0.1837,-0.1815,-0.198,-0.1982,-0.1949,-0.1948,-0.1962,-0.1962,-0.1963,-0.1963,0,-0.1285,-0.136,-0.1414,-0.1529,-0.1565,-0.1603,-0.1713,-0.1749,-0.1832,-0.1866,-0.1888,-0.1951,-0.1926,-0.1939,-0.1916,-0.1864,-0.1808,-0.1757,-0.1923,-0.1915,-0.1686,-0.1689,-0.1589,-0.1584,-0.1579,-0.1576,-0.1573,0,-0.1241,-0.1261,-0.1382,-0.1419,-0.1475,-0.1551,-0.16,-0.171,-0.1745,-0.1826,-0.1824,-0.1836,-0.1858,-0.1708,-0.1751,-0.1692,-0.1678,-0.1643,-0.1668,-0.1654,-0.1643,-0.1653,-0.1662,-0.1566,-0.1565,-0.1563,-0.1562,0,-0.1156,-0.121,-0.1258,-0.1329,-0.1394,-0.1445,-0.1525,-0.1531,-0.1641,-0.1736,-0.1697,-0.1672,-0.163,-0.1606,-0.1559,-0.1532,-0.1667,-0.1597,-0.1607,-0.163,-0.1625,-0.1621,-0.1635,-0.1547,-0.1549,-0.1551,-0.1552,0,-0.1094,-0.1106,-0.1175,-0.1221,-0.1296,-0.131,-0.1368,-0.1403,-0.1439,-0.1545,-0.1526,-0.1546,-0.1604,-0.152,-0.149,-0.1436,-0.1422,-0.139,-0.141,-0.1427,-0.1397,-0.1369,-0.1171,0,0,0,0,0,-0.1024,-0.1025,-0.1064,-0.1107,-0.1174,-0.1205,-0.1304,-0.1369,-0.1478,-0.1406,-0.1458,-0.1417,-0.1357,-0.1378,-0.1284,-0.1417,-0.1429,-0.1305,-0.1404,-0.1463,-0.1481,-0.1462,0,0,0,0,0,0,-0.0981,-0.101,-0.102,-0.0991,-0.0997,-0.1047,-0.1098,-0.1177,-0.1149,-0.1265,-0.1233,-0.1326,-0.1283,-0.1367,-0.1248,-0.1254,-0.1287,-0.1336,-0.1332,-0.1453,-0.1469,-0.1483,-0.147,0,0,0,0,0]},{"header":{"parameterUnit":"m.s-1","parameterCategory":2,"la1":30.2991,"la2":30.254,"lo1":-89.0895,"lo2":-89.0444,"dy":0.0017,"dx":0.0017,"nx":28,"ny":28,"refTime":"2023-10-06T09:00:00:Z","depth":"4","parameterNumber":3,"parameterNumberName":"V-component_of_CURRENTS"},"data":[0,0,0,0,0,0,0,0,0,0,0,0,0,0,0,0,0,0,0,0,0,0,0,0,0,0,0,0,0,0,0,0,0,0,0,0,0,0,0,0,0,0,0,0,0,0,0,0,0,0,0,0,0,0,0,0,0,0,-0.0172,-0.0172,0,-0.0123,-0.0122,-0.0121,-0.0075,-0.0075,-0.0074,-0.0074,0.0003,0.0004,0.0006,0,0,0,0,0,0,0,0,0,0,0,0,0,-0.0186,-0.0186,-0.0172,-0.0172,-0.0171,-0.0123,-0.0122,-0.0121,-0.0075,-0.0075,-0.0074,-0.0073,0.0002,0.0004,0.0006,0,0,0,0,0,0,0,0,0,0,0,0,0,-0.0162,-0.0186,-0.0172,-0.0143,-0.014,-0.0123,-0.0122,-0.0121,-0.0075,-0.0075,-0.0074,-0.0073,0.0002,0.0004,0.0006,0.0006,0,0,0.0013,0.0014,0,0,0,0,0,0,0,0,-0.0164,-0.0162,-0.0148,-0.0145,-0.0141,-0.0105,-0.0099,-0.0078,-0.0076,-0.0099,-0.0074,-0.0073,-0.0032,-0.0027,-0.0018,0.0009,0.0012,0.0014,0.0015,0.0016,0.0017,0,0,0,0,0,0,0,-0.0165,-0.0163,-0.0152,-0.0147,-0.0143,-0.0118,-0.0114,-0.0094,-0.0069,-0.0097,-0.0094,-0.009,-0.003,-0.0021,-0.0016,0.0014,0.0013,0.0016,0.0017,0.0018,0.0068,0.0068,0,0,0,0,0,0,-0.0176,-0.0165,-0.0153,-0.015,-0.0152,-0.0119,-0.0114,-0.0117,-0.007,-0.0062,-0.009,-0.0088,-0.0025,-0.0019,-0.0013,0.0009,0.0016,0.0018,0.0019,0.0068,0.0068,0.0068,0,0,0,0,0,0,-0.0177,-0.0176,-0.0155,-0.0157,-0.0152,-0.012,-0.0123,-0.0116,-0.0107,-0.0065,-0.0057,-0.0088,-0.0024,-0.0017,0.0005,0.0012,0.0019,0.0021,0.0068,0.0068,0.0068,0.0041,0,0,0,0,0,0,-0.0177,-0.0176,-0.0185,-0.0158,-0.0153,-0.015,-0.0123,-0.0116,-0.0106,-0.0102,-0.0061,-0.0053,-0.0023,0.0002,0.0008,0.0015,0.0023,0.0068,0.0068,0.0068,0.0042,0.004,0.0039,0,0,0,0,0,-0.0178,-0.0194,-0.0186,-0.0184,-0.0165,-0.015,-0.0145,-0.0118,-0.0107,-0.0107,-0.0076,-0.0054,0.0005,0.0003,0.001,0.0019,0.0068,0.0068,0.0068,0.0043,0.0041,0.0039,0,0,0,0,0,0,-0.0204,-0.019,-0.018,-0.0191,-0.0174,-0.0143,-0.0144,-0.0125,-0.0102,-0.01,-0.0057,-0.0048,-0.0028,-0.0004,-0.0008,0.0032,0.0041,0.0043,0.002,0.0018,0.0016,0.0013,0.0025,0,0,0,0,0,-0.0216,-0.0224,-0.0201,-0.021,-0.0205,-0.0176,-0.0169,-0.0151,-0.0126,-0.0115,-0.0084,-0.0052,-0.0024,-0.0004,0.0018,0.004,0.0071,0.005,0.0049,0.0047,0.0049,0.0105,0.0109,0.0067,0.0067,0.0067,0,0,-0.0228,-0.0223,-0.0227,-0.0217,-0.0203,-0.0198,-0.017,-0.0164,-0.0154,-0.0112,-0.0092,-0.0064,-0.0023,0.0002,0.0014,0.0025,0.0073,0.0047,0.0045,0.0048,0.0106,0.011,0.0114,0.0067,0.0067,0.0067,0,0,-0.0258,-0.0254,-0.0269,-0.0258,-0.0244,-0.0223,-0.0224,-0.0196,-0.0176,-0.0158,-0.0122,-0.0086,-0.0053,-0.0008,0.0016,0.0016,0.0053,0.0017,0.0018,0.0072,0.0076,0.0081,0.0116,0.0124,0.0027,0.0027,0.0027,0,-0.0274,-0.0288,-0.027,-0.0278,-0.0271,-0.0237,-0.0242,-0.022,-0.0185,-0.0166,-0.0159,-0.0087,-0.0052,0.0,0.0004,0.0015,0.0041,0.0023,0.0071,0.0076,0.008,0.0116,0.0125,0.0025,0.0025,0.0026,0.0026,0,-0.0309,-0.0318,-0.0327,-0.0323,-0.0312,-0.0314,-0.0278,-0.0264,-0.0239,-0.0205,-0.0161,-0.0109,-0.006,-0.0042,-0.0018,0.0035,0.0039,0.0054,0.0077,0.0083,0.012,0.013,0.0023,0.0024,0.0024,0.0025,0,0,-0.0346,-0.0351,-0.0354,-0.0359,-0.0335,-0.0331,-0.0313,-0.0279,-0.0263,-0.0218,-0.0185,-0.0122,-0.0086,-0.0057,-0.0013,0.0042,0.0098,0.0059,0.0063,0.0095,0.0204,0.018,0.0188,0.012,0.0121,0.0123,0.0213,0,-0.0376,-0.0405,-0.0392,-0.0407,-0.0414,-0.0377,-0.036,-0.0323,-0.0284,-0.0244,-0.0169,-0.0129,-0.0092,-0.0069,-0.0006,0.0069,0.0123,0.0071,0.0193,0.0197,0.0176,0.0199,0.0128,0.0221,0.0223,0.0224,0.0226,0,-0.0408,-0.0423,-0.0449,-0.0446,-0.0445,-0.0447,-0.0412,-0.0393,-0.0321,-0.0289,-0.0223,-0.0169,-0.0078,-0.0056,0.009,0.0052,0.0123,0.0183,0.0189,0.0183,0.019,0.0217,0.0243,0.0242,0.0241,0.0239,0.0238,0,-0.0439,-0.0458,-0.0482,-0.0483,-0.0474,-0.0476,-0.0464,-0.0408,-0.0387,-0.0316,-0.0289,-0.0181,-0.0127,-0.0017,0.0106,0.01,0.0259,0.027,0.0317,0.0315,0.0322,0.0317,0.0372,0.0372,0.0372,0.0371,0.0371,0,-0.0468,-0.0489,-0.0506,-0.0522,-0.0545,-0.0518,-0.0522,-0.0492,-0.0438,-0.0405,-0.0317,-0.0263,-0.0115,-0.0006,0.0103,0.0237,0.0262,0.0321,0.0343,0.0306,0.0298,0.0328,0.0322,0.0375,0.0374,0.0373,0.0373,0,-0.0493,-0.0506,-0.0541,-0.0556,-0.0565,-0.0581,-0.0575,-0.0567,-0.0514,-0.0468,-0.0446,-0.0317,-0.0177,-0.0033,0.0149,0.0224,0.0357,0.0396,0.0335,0.035,0.0377,0.0368,0.0461,0.0461,0.0462,0.0462,0.0462,0,-0.0506,-0.053,-0.0578,-0.0607,-0.0622,-0.0642,-0.065,-0.0612,-0.0591,-0.0491,-0.0463,-0.0331,-0.0232,0.0011,0.0151,0.0348,0.0372,0.043,0.0416,0.0377,0.0389,0.038,0.0372,0.0462,0.0462,0.0462,0.0462,0,-0.0529,-0.0554,-0.0585,-0.0649,-0.0682,-0.0706,-0.071,-0.0698,-0.0632,-0.0591,-0.0456,-0.0321,-0.0168,0.0013,0.0155,0.0299,0.0388,0.0431,0.0432,0.0419,0.0378,0.0388,0.038,0.0462,0.0462,0.0462,0.0462,0,-0.0545,-0.0578,-0.0628,-0.0676,-0.0725,-0.0745,-0.0746,-0.0698,-0.0663,-0.0541,-0.0497,-0.0317,-0.0209,-0.0011,0.013,0.0255,0.0288,0.0325,0.0332,0.0334,0.0263,0.019,0.0242,0,0,0,0,0,-0.0551,-0.0591,-0.0647,-0.0698,-0.0746,-0.0767,-0.0768,-0.0752,-0.0689,-0.0598,-0.054,-0.0388,-0.016,-0.0054,0.0069,0.0108,0.0286,0.0253,0.0326,0.0462,0.0462,0.0398,0,0,0,0,0,0,-0.0558,-0.0616,-0.0645,-0.07,-0.0735,-0.0774,-0.0775,-0.0737,-0.067,-0.0592,-0.0467,-0.0373,-0.0155,-0.0232,0.0067,0.0107,0.0166,0.0368,0.037,0.0462,0.0462,0.0462,0.0396,0,0,0,0,0]}]]